Flag for Canada Weather past 2 weeks in Colchester County, Nova Scotia, Canada

Now
63 °F

Scattered clouds.


Feels Like: 63 °F
Forecast: 52 / 74 °F
Wind: 10 mph from Southeast

Location: Halifax International Airport

Current Time: May 29, 2015 at 10:16:01 PM

Latest Report: May 29, 2015 at 9:00 PM


Visibility: 15 mi

Pressure: 30.27 "Hg

Humidity: 88%

Dew point: 59 °F

Location of Colchester CountyLocation

Historic Weather in Colchester County — Graph

°F

Colchester County temperature yesterday

Maximum temperature yesterday: 73 °F (at 3:00 PM)
Minimum temperature yesterday: 54 °F (at 4:00 AM)
Average temperature yesterday: 62 °F

Past Weeks' High & Low Weather Summary

 TemperatureHumidityPressure
High79 °F (May 25, 1:00 PM)100% (May 17, 1:00 AM)30.33 "Hg (May 17, 1:00 AM)
Low37 °F (May 24, 4:00 AM)22% (May 15, 3:00 PM)29.48 "Hg (May 20, 4:51 PM)
Average54 °F68%30.07 "Hg
* Reported May 14 9:00 PM — May 29 9:00 PM, Colchester County, Weather by CustomWeather, © 2015

Note: Actual official high and low records may vary slightly from our data, if they occured in-between our weather recording intervals... More about our weather records

Advertising

Colchester County weather history for previous 24 hours

 ConditionsComfort  
Time TempWeatherWind HumidityBarometerVisibility
9:00 PM
Fri, May 29
63 °FScattered clouds.10 mph88%30.27 "Hg15 mi
8:00 PM68 °FScattered clouds.8 mph73%30.27 "Hg15 mi
7:00 PM72 °FScattered clouds.9 mph65%30.25 "Hg15 mi
6:00 PM72 °FPartly sunny.8 mph73%30.25 "Hg15 mi
5:00 PM72 °FPartly sunny.7 mph69%30.26 "Hg15 mi
4:00 PM72 °FPartly sunny.7 mph69%30.25 "Hg15 mi
3:00 PM73 °FPartly sunny.7 mph61%30.26 "Hg15 mi
2:00 PM73 °FPartly sunny.7 mph61%30.25 "Hg15 mi
1:00 PM73 °FPartly sunny.8 mph65%30.25 "Hg15 mi
12:00 PM70 °FScattered clouds.10 mph69%30.27 "Hg15 mi
11:00 AM68 °FPassing clouds.8 mph73%30.27 "Hg15 mi
10:00 AM63 °FPartly sunny.8 mph88%30.26 "Hg15 mi
9:00 AM59 °FMostly cloudy.7 mph100%30.24 "Hg12 mi
8:00 AM57 °FFog.9 mph94%30.22 "Hg0 mi
7:00 AM57 °FFog.7 mph94%30.20 "Hg0 mi
6:00 AM57 °FFog.6 mph94%30.18 "Hg0 mi
5:00 AM55 °FFog.6 mph100%30.17 "Hg0 mi
4:00 AM54 °FFog.7 mph100%30.16 "Hg0 mi
3:00 AM54 °FFog.14 mph100%30.13 "Hg0 mi
2:00 AM57 °FFog.10 mph100%30.14 "Hg1 mi
1:00 AM59 °FFog.10 mph94%30.15 "Hg3 mi
12:00 AM61 °FMostly cloudy.13 mph94%30.15 "Hg10 mi
11:00 PM
Thu, May 28
61 °FOvercast.14 mph94%30.15 "Hg15 mi
10:00 PM61 °FMostly cloudy.12 mph94%30.16 "Hg15 mi
Weather by CustomWeather, © 2015

See weather overviewHow to use our weather pages